Weather History for Bryce Canyon, UT

Change the Weather History Date:

Thursday, March 7, 2013

  Actual Average Record
Temperature  
Mean Temperature 33 °F -  
Max Temperature 45 °F 43 °F 61 °F (1972)
Min Temperature 21 °F 17 °F -2 °F (1961)
Degree Days  
Heating Degree Days 32    
Moisture  
Dew Point 18 °F    
Average Humidity 53    
Maximum Humidity 85    
Minimum Humidity 31    
Precipitation  
Precipitation 0.00 in - - ()
Sea Level Pressure  
Sea Level Pressure 29.83 in    
Wind  
Wind Speed 8 mph (South)    
Max Wind Speed 23 mph    
Max Gust Speed 32 mph    
Visibility 10 miles    
Events      
Averages and records for this station are not official NWS values.
T = Trace of Precipitation, MM = Missing Value Source: NWS Daily Summary

Daily Weather History Graph

Daily Weather History Graph

Search for Another Location

Airport:

Trip Planner

Search our weather history database for the weather conditions in past years. The results will help you decide how hot, cold, wet, or windy it might be!

Date:

Astronomy

Mar. 07, 2013 Rise Set
Actual Time 6:51 AM MST 6:28 PM MST
Civil Twilight 6:24 AM MST 6:54 PM MST
Nautical Twilight 5:54 AM MST 7:25 PM MST
Astronomical Twilight 5:24 AM MST 7:55 PM MST
Moon 3:49 AM MST (3/7) 2:24 PM MST (3/7)
Length of Visible Light 12h 29m
Length of Day
11h 37m
Waning Crescent, 19% of the Moon is Illuminated
Mar 7
Waning Crescent
Mar 11
New
Mar 19
First Quarter
Mar 27
Full
Apr 2
Last Quarter

Hourly Weather History & Observations

Time (MST) Temp. Windchill Dew Point Humidity Pressure Visibility Wind Dir Wind Speed Gust Speed Precip Events Conditions
12:53 AM 30.0 °F 24.1 °F 18.0 °F 61% 29.83 in 10.0 mi SSE 5.8 mph - N/A   Clear
1:53 AM 30.9 °F 27.5 °F 18.0 °F 59% 29.83 in 10.0 mi West 3.5 mph - N/A   Clear
2:53 AM 28.9 °F 21.9 °F 17.1 °F 61% 29.81 in 10.0 mi SSE 6.9 mph - N/A   Clear
3:53 AM 26.1 °F - 18.0 °F 71% 29.83 in 10.0 mi Calm Calm - N/A   Clear
4:53 AM 23.0 °F - 18.0 °F 81% 29.85 in 10.0 mi Calm Calm - N/A   Clear
5:53 AM 26.1 °F - 18.0 °F 71% 29.85 in 10.0 mi Calm Calm - N/A   Clear
6:53 AM 21.0 °F 16.2 °F 17.1 °F 85% 29.91 in 10.0 mi West 3.5 mph - N/A   Clear
7:53 AM 24.1 °F - 19.0 °F 81% 29.91 in 10.0 mi Calm Calm - N/A   Clear
8:53 AM 36.0 °F 29.6 °F 19.9 °F 52% 29.88 in 10.0 mi SE 8.1 mph - N/A   Clear
9:53 AM 37.9 °F 30.0 °F 19.9 °F 48% 29.87 in 10.0 mi SE 12.7 mph - N/A   Clear
10:53 AM 39.9 °F 32.5 °F 21.0 °F 47% 29.87 in 10.0 mi SE 12.7 mph 19.6 mph N/A   Clear
11:53 AM 41.0 °F 31.9 °F 17.1 °F 38% 29.84 in 10.0 mi South 19.6 mph 26.5 mph N/A   Clear
12:53 PM 42.1 °F 35.2 °F 17.1 °F 37% 29.82 in 10.0 mi South 12.7 mph 23.0 mph N/A   Clear
1:53 PM 44.1 °F 35.2 °F 15.1 °F 31% 29.77 in 10.0 mi South 23.0 mph 32.2 mph N/A   Partly Cloudy
2:53 PM 45.0 °F 36.6 °F 16.0 °F 31% 29.78 in 10.0 mi South 21.9 mph 31.1 mph N/A   Clear
3:53 PM 45.0 °F 37.1 °F 18.0 °F 34% 29.78 in 10.0 mi South 19.6 mph 26.5 mph N/A   Clear
4:53 PM 43.0 °F 35.1 °F 16.0 °F 34% 29.80 in 10.0 mi SSE 17.3 mph 24.2 mph N/A   Clear
5:53 PM 41.0 °F 34.3 °F 17.1 °F 38% 29.78 in 10.0 mi South 11.5 mph - N/A   Mostly Cloudy
6:53 PM 41.0 °F 33.9 °F 14.0 °F 33% 29.83 in 10.0 mi South 12.7 mph - N/A   Clear
7:53 PM 37.9 °F 29.6 °F 16.0 °F 41% 29.84 in 10.0 mi SW 13.8 mph - N/A   Partly Cloudy
8:53 PM 35.1 °F 26.9 °F 18.0 °F 50% 29.80 in 10.0 mi SW 11.5 mph - N/A   Clear
9:53 PM 35.1 °F 26.9 °F 19.0 °F 52% 29.79 in 10.0 mi SW 11.5 mph - N/A   Clear
10:53 PM 32.0 °F 28.7 °F 19.9 °F 61% 29.80 in 10.0 mi SW 3.5 mph - N/A   Clear
11:53 PM 28.9 °F - 21.9 °F 75% 29.81 in 10.0 mi Calm Calm - N/A   Clear